Regional Weather Roundup
Issued by NWS

Home | Current Version | Previous Version | Graphics & Text | Print | Product List | Glossary On
Versions: 1 2 3 4 5 6 7 8 9 10 11 12 13 14 15 16 17 18 19 20 21 22 23 24 25 26 27 28 29 30 31 32 33 34 35 36 37 38 39 40 41 42 43 44 45 46 47 48 49 50
000
ASUS43 KTOP 152359
RWRKS

WEATHER ROUNDUP FOR KANSAS
NATIONAL WEATHER SERVICE GOODLAND KS
700 PM CDT MON SEP 15 2014

NOTE:  "FAIR" INDICATES FEW OR NO CLOUDS BELOW 12,000 FEET WITH NO
SIGNIFICANT WEATHER AND/OR OBSTRUCTIONS TO VISIBILITY.

KSZ001>006-013>018-027>032-041>047-160100-
NORTHWEST KANSAS

CITY           SKY/WX    TMP DP  RH WIND       PRES   REMARKS
GOODLAND       CLEAR     66  49  54 E7        30.27S
6HR MIN TEMP:  57; 6HR MAX TEMP:  68;

HAYS           CLEAR     68  52  56 NE9       30.22F
HILL CITY      CLEAR     70  42  36 NE12      30.24S
6HR MIN TEMP:  66; 6HR MAX TEMP:  73;

RUSSELL        CLEAR     68  51  54 NE10      30.20S
6HR MIN TEMP:  67; 6HR MAX TEMP:  72;

$$

KSZ061>065-074>080-084>089-160100-
SOUTHWEST KANSAS

CITY           SKY/WX    TMP DP  RH WIND       PRES   REMARKS
DODGE CITY     CLOUDY    64  54  69 NE13      30.22S
6HR MIN TEMP:  59; 6HR MAX TEMP:  65; 6HR PCP: TRACE;

ELKHART          N/A     58  55  90 N8          N/A
GARDEN CITY    CLOUDY    64  53  67 NE12      30.23S
6HR MIN TEMP:  58; 6HR MAX TEMP:  64; 6HR PCP: TRACE;

GREAT BEND     CLOUDY    66  55  68 NE8       30.21S
LIBERAL        CLOUDY    63  54  72 NE12      30.24R
PRATT          CLOUDY    64  54  68 NE13      30.20S
$$

KSZ066>073-081>083-090>101-160100-
SOUTHEAST KANSAS

CITY           SKY/WX    TMP DP  RH WIND       PRES   REMARKS
CHANUTE        PTCLDY    71  62  73 NE9G20    30.13R
6HR MIN TEMP:  71; 6HR MAX TEMP:  85; 6HR PCP: TRACE;

COFFEYVILLE    MOCLDY    73  71  93 N12       30.09R
6HR MIN TEMP:  73; 6HR MAX TEMP:  87; 6HR PCP:  0.15;

HUTCHINSON     CLOUDY    68  57  68 NE7       30.18R
6HR MIN TEMP:  66; 6HR MAX TEMP:  71;

NEWTON         PTCLDY    66  55  68 NE13      30.19S
PARSONS        PTCLDY    73  64  73 N7G16     30.12R
6HR MIN TEMP:  73; 6HR MAX TEMP:  88; 6HR PCP: TRACE;

WICHITA INTL   PTCLDY    72  60  66 NE14      30.15R
6HR MIN TEMP:  72; 6HR MAX TEMP:  84;

WICHITA JABRA  CLEAR     69  59  70 NE15      30.15R
6HR MIN TEMP:  69; 6HR MAX TEMP:  84;

WINFIELD       CLOUDY    75  64  68 NE14      30.13R
6HR MIN TEMP:  75; 6HR MAX TEMP:  88;

$$

KSZ007>012-019>026-033>040-048>060-102>105-160100-
NORTHEAST KANSAS

CITY           SKY/WX    TMP DP  RH WIND       PRES   REMARKS
CONCORDIA      CLEAR     65  49  56 NE8       30.22R
6HR MIN TEMP:  65; 6HR MAX TEMP:  71;

EMPORIA        CLOUDY    67  57  70 NE13      30.16R
6HR MIN TEMP:  66; 6HR MAX TEMP:  76;

LAWRENCE       CLOUDY    65  55  70 N10       30.18R
6HR MIN TEMP:  65; 6HR MAX TEMP:  70; 6HR PCP: TRACE;

MANHATTAN      PTCLDY    67  53  61 NE10      30.19R
6HR MIN TEMP:  65; 6HR MAX TEMP:  74;

OLATHE IND     CLOUDY    65  57  75 N15       30.18R
6HR MIN TEMP:  65; 6HR MAX TEMP:  68; 6HR PCP: TRACE;

OLATHE EXE     CLOUDY    64  57  78 N13       30.16R
6HR MIN TEMP:  64; 6HR MAX TEMP:  69; 6HR PCP: TRACE;

SALINA         CLEAR     71  52  50 NE14      30.19R
6HR MIN TEMP:  64; 6HR MAX TEMP:  73;

TOPEKA BILLARD CLEAR     67  54  63 N13       30.19R
6HR MIN TEMP:  67; 6HR MAX TEMP:  72;

TOPEKA FORBES  CLEAR     66  54  65 N14G21    30.18R
6HR MIN TEMP:  65; 6HR MAX TEMP:  70;

$$



USA.gov is the U.S. government's official web portal to all federal, state and local government web resources and services.